| time (UTC) | temp C | wind direction | speed KPH | gust KPH | rain 1hr cm | rain 24hr cm | rain mn cm | humidity % | barometer mb |
| 20260510095153 | 20 | 111 | 0.0 | 8.0 | 0.00 | 0.00 | 0.00 | 93 | 1012.5 |
| 20260510094652 | 20 | 181 | 6.4 | 9.7 | 0.00 | 0.00 | 0.00 | 93 | 1012.3 |
| 20260510094148 | 20 | 230 | 4.8 | 8.0 | 0.00 | 0.00 | 0.00 | 93 | 1012.2 |
| 20260510093644 | 20 | 216 | 8.0 | 8.0 | 0.00 | 0.00 | 0.00 | 93 | 1012.3 |
| 20260510093142 | 20 | 210 | 4.8 | 8.0 | 0.00 | 0.00 | 0.00 | 93 | 1012.3 |
| 20260510092638 | 20 | 175 | 3.2 | 11.3 | 0.00 | 0.00 | 0.00 | 93 | 1012.3 |
| 20260510092133 | 20 | 227 | 4.8 | 6.4 | 0.00 | 0.00 | 0.00 | 93 | 1012.2 |
| 20260510091629 | 20 | 96 | 1.6 | 8.0 | 0.00 | 0.00 | 0.00 | 93 | 1012.2 |
| 20260510091126 | 20 | 225 | 3.2 | 6.4 | 0.00 | 0.00 | 0.00 | 93 | 1012.3 |
| 20260510090623 | 20 | 192 | 3.2 | 4.8 | 0.00 | 0.00 | 0.00 | 93 | 1012.2 |
| 20260510090119 | 20 | 255 | 1.6 | 6.4 | 0.00 | 0.00 | 0.00 | 93 | 1012.3 |
| 20260510085614 | 20 | 180 | 3.2 | 8.0 | 0.00 | 0.00 | 0.00 | 93 | 1012.3 |
| 20260510085109 | 20 | 205 | 6.4 | 8.0 | 0.00 | 0.00 | 0.00 | 92 | 1012.4 |
| 20260510084606 | 21 | 217 | 4.8 | 6.4 | 0.00 | 0.00 | 0.00 | 92 | 1012.2 |
| 20260510084103 | 21 | 180 | 3.2 | 6.4 | 0.00 | 0.00 | 0.00 | 92 | 1012.3 |
| 20260510083559 | 21 | 162 | 0.0 | 4.8 | 0.00 | 0.00 | 0.00 | 92 | 1012.4 |
| 20260510083056 | 21 | 180 | 0.0 | 8.0 | 0.00 | 0.00 | 0.00 | 92 | 1012.4 |
| 20260510082553 | 21 | 170 | 4.8 | 6.4 | 0.00 | 0.00 | 0.00 | 92 | 1012.3 |
| 20260510082048 | 21 | 262 | 3.2 | 4.8 | 0.00 | 0.00 | 0.00 | 92 | 1012.5 |
| 20260510081543 | 21 | 186 | 0.0 | 6.4 | 0.00 | 0.00 | 0.00 | 91 | 1012.5 |
| 20260510081039 | 21 | 186 | 1.6 | 4.8 | 0.00 | 0.00 | 0.00 | 91 | 1012.4 |
| 20260510080538 | 21 | 227 | 4.8 | 4.8 | 0.00 | 0.00 | 0.00 | 91 | 1012.5 |
| 20260510080036 | 21 | 233 | 4.8 | 6.4 | 0.00 | 0.00 | 0.00 | 91 | 1012.5 |
| 20260510075533 | 21 | 236 | 3.2 | 8.0 | 0.00 | 0.00 | 0.00 | 90 | 1012.4 |
| 20260510075030 | 21 | 246 | 0.0 | 11.3 | 0.00 | 0.00 | 0.00 | 90 | 1012.6 |
| 20260510074527 | 21 | 240 | 0.0 | 6.4 | 0.00 | 0.00 | 0.00 | 90 | 1012.5 |
| 20260510074022 | 21 | 202 | 6.4 | 6.4 | 0.00 | 0.00 | 0.00 | 90 | 1012.5 |
| 20260510073518 | 21 | 194 | 0.0 | 4.8 | 0.00 | 0.00 | 0.00 | 89 | 1012.4 |
| 20260510073016 | 21 | 216 | 4.8 | 6.4 | 0.00 | 0.00 | 0.00 | 89 | 1012.6 |
| 20260510072512 | 21 | 234 | 0.0 | 4.8 | 0.00 | 0.00 | 0.00 | 89 | 1012.8 |
| 20260510072008 | 21 | 123 | 3.2 | 8.0 | 0.00 | 0.00 | 0.00 | 89 | 1012.7 |
| 20260510071504 | 21 | 199 | 0.0 | 4.8 | 0.00 | 0.00 | 0.00 | 89 | 1012.7 |
| 20260510071003 | 21 | 204 | 6.4 | 9.7 | 0.00 | 0.00 | 0.00 | 88 | 1012.6 |
| 20260510070459 | 21 | 180 | 3.2 | 8.0 | 0.00 | 0.00 | 0.00 | 88 | 1012.6 |
| 20260510065955 | 21 | 209 | 0.0 | 3.2 | 0.00 | 0.00 | 0.00 | 88 | 1012.6 |
| 20260510065452 | 21 | 172 | 0.0 | 4.8 | 0.00 | 0.00 | 0.00 | 88 | 1012.3 |
| 20260510064948 | 21 | 233 | 0.0 | 4.8 | 0.00 | 0.00 | 0.00 | 88 | 1012.4 |
| 20260510064446 | 22 | 255 | 1.6 | 4.8 | 0.00 | 0.00 | 0.00 | 87 | 1012.3 |
| 20260510063942 | 22 | 240 | 1.6 | 4.8 | 0.00 | 0.00 | 0.00 | 87 | 1012.3 |
| 20260510063438 | 22 | 208 | 3.2 | 6.4 | 0.00 | 0.00 | 0.00 | 87 | 1012.3 |
| 20260510062937 | 22 | 198 | 1.6 | 4.8 | 0.00 | 0.00 | 0.00 | 87 | 1012.3 |
| 20260510062437 | 22 | 195 | 1.6 | 6.4 | 0.00 | 0.00 | 0.00 | 87 | 1012.3 |
| 20260510061932 | 22 | 205 | 4.8 | 8.0 | 0.00 | 0.00 | 0.00 | 87 | 1012.5 |
| 20260510061429 | 22 | 191 | 6.4 | 9.7 | 0.00 | 0.00 | 0.00 | 87 | 1012.4 |
| 20260510060925 | 22 | 239 | 4.8 | 6.4 | 0.00 | 0.00 | 0.00 | 87 | 1012.1 |
| 20260510060423 | 22 | 265 | 3.2 | 6.4 | 0.00 | 0.00 | 0.00 | 86 | 1012.3 |
| 20260510055919 | 22 | 228 | 6.4 | 11.3 | 0.00 | 0.00 | 0.00 | 86 | 1012.5 |
| 20260510055414 | 22 | 210 | 3.2 | 9.7 | 0.00 | 0.00 | 0.00 | 85 | 1012.4 |
| 20260510054907 | 22 | 180 | 0.0 | 6.4 | 0.00 | 0.00 | 0.00 | 85 | 1012.2 |
| 20260510054402 | 22 | 274 | 4.8 | 4.8 | 0.00 | 0.00 | 0.00 | 85 | 1012.3 |
| 20260510053857 | 23 | 90 | 0.0 | 8.0 | 0.00 | 0.00 | 0.00 | 84 | 1012.3 |
| 20260510053353 | 23 | 206 | 3.2 | 6.4 | 0.00 | 0.00 | 0.00 | 84 | 1012.4 |
| 20260510052850 | 23 | 229 | 4.8 | 6.4 | 0.00 | 0.00 | 0.00 | 84 | 1012.4 |
| 20260510052345 | 23 | 206 | 0.0 | 4.8 | 0.00 | 0.00 | 0.00 | 84 | 1012.5 |
| 20260510051842 | 23 | 254 | 1.6 | 4.8 | 0.00 | 0.00 | 0.00 | 85 | 1012.7 |
| 20260510051338 | 23 | 180 | 0.0 | 4.8 | 0.00 | 0.00 | 0.00 | 84 | 1012.3 |
| 20260510050835 | 23 | 165 | 0.0 | 4.8 | 0.00 | 0.00 | 0.00 | 85 | 1012.4 |
| 20260510050332 | 23 | 98 | 0.0 | 3.2 | 0.00 | 0.00 | 0.00 | 86 | 1012.4 |
| 20260510045829 | 23 | 184 | 3.2 | 4.8 | 0.00 | 0.08 | 0.08 | 87 | 1012.2 |
| 20260510045326 | 23 | 246 | 0.0 | 3.2 | 0.00 | 0.08 | 0.08 | 87 | 1012.1 |
| 20260510044823 | 22 | 265 | 0.0 | 3.2 | 0.00 | 0.08 | 0.08 | 88 | 1012.2 |
| 20260510044320 | 22 | 195 | 0.0 | 0.0 | 0.00 | 0.08 | 0.08 | 88 | 1012.1 |
| 20260510043816 | 22 | 195 | 0.0 | 0.0 | 0.00 | 0.08 | 0.08 | 88 | 1012.1 |
| 20260510043312 | 23 | 195 | 0.0 | 1.6 | 0.00 | 0.08 | 0.08 | 87 | 1012.1 |
| 20260510042810 | 23 | 261 | 0.0 | 1.6 | 0.00 | 0.08 | 0.08 | 86 | 1012.3 |
| 20260510042307 | 23 | 270 | 0.0 | 1.6 | 0.00 | 0.08 | 0.08 | 86 | 1012.3 |
| 20260510041802 | 23 | 185 | 0.0 | 4.8 | 0.00 | 0.08 | 0.08 | 86 | 1012.1 |
| 20260510041300 | 23 | 254 | 0.0 | 1.6 | 0.00 | 0.08 | 0.08 | 85 | 1012.5 |
| 20260510040757 | 23 | 180 | 0.0 | 3.2 | 0.00 | 0.08 | 0.08 | 85 | 1012.1 |
| 20260510040254 | 23 | 165 | 0.0 | 1.6 | 0.00 | 0.08 | 0.08 | 86 | 1012.2 |
| 20260510035749 | 23 | 276 | 1.6 | 4.8 | 0.00 | 0.08 | 0.08 | 85 | 1012.1 |
| 20260510035245 | 23 | 261 | 0.0 | 3.2 | 0.00 | 0.08 | 0.08 | 85 | 1012.0 |
| 20260510034741 | 23 | 180 | 0.0 | 1.6 | 0.00 | 0.08 | 0.08 | 85 | 1012.0 |
| 20260510034239 | 23 | 187 | 0.0 | 3.2 | 0.00 | 0.08 | 0.08 | 85 | 1011.9 |
| 20260510033734 | 23 | 270 | 0.0 | 1.6 | 0.00 | 0.08 | 0.08 | 85 | 1012.0 |
| 20260510033227 | 24 | 180 | 0.0 | 3.2 | 0.00 | 0.08 | 0.08 | 84 | 1011.8 |
| 20260510032723 | 24 | 168 | 0.0 | 3.2 | 0.00 | 0.08 | 0.08 | 85 | 1011.8 |
| 20260510032219 | 24 | 172 | 0.0 | 0.0 | 0.00 | 0.08 | 0.08 | 85 | 1011.8 |
| 20260510031714 | 24 | 188 | 0.0 | 4.8 | 0.00 | 0.08 | 0.08 | 84 | 1011.8 |
| 20260510031211 | 24 | 198 | 1.6 | 3.2 | 0.00 | 0.08 | 0.08 | 85 | 1011.6 |
| 20260510030710 | 24 | 126 | 0.0 | 1.6 | 0.00 | 0.08 | 0.08 | 84 | 1011.8 |
| 20260510030208 | 25 | 254 | 0.0 | 4.8 | 0.00 | 0.08 | 0.08 | 84 | 1011.8 |
| 20260510025705 | 25 | 203 | 0.0 | 3.2 | 0.00 | 0.08 | 0.08 | 84 | 1011.5 |
| 20260510025202 | 25 | 180 | 0.0 | 3.2 | 0.00 | 0.08 | 0.08 | 83 | 1011.4 |
| 20260510024659 | 25 | 176 | 0.0 | 4.8 | 0.00 | 0.08 | 0.08 | 82 | 1011.6 |
| 20260510024155 | 25 | 198 | 1.6 | 6.4 | 0.00 | 0.08 | 0.08 | 82 | 1011.0 |
| 20260510023651 | 25 | 180 | 3.2 | 4.8 | 0.00 | 0.08 | 0.08 | 82 | 1011.3 |
| 20260510023148 | 25 | 176 | 0.0 | 6.4 | 0.00 | 0.08 | 0.08 | 82 | 1011.3 |
| 20260510022643 | 25 | 180 | 0.0 | 3.2 | 0.00 | 0.08 | 0.08 | 81 | 1010.9 |
| 20260510022139 | 25 | 69 | 0.0 | 3.2 | 0.00 | 0.08 | 0.08 | 80 | 1010.7 |
| 20260510021634 | 25 | 75 | 0.0 | 4.8 | 0.00 | 0.08 | 0.08 | 80 | 1010.9 |
| 20260510021132 | 25 | 196 | 3.2 | 3.2 | 0.00 | 0.08 | 0.08 | 79 | 1011.0 |
| 20260510020626 | 25 | 180 | 0.0 | 3.2 | 0.00 | 0.08 | 0.08 | 79 | 1011.0 |
| 20260510020121 | 25 | 279 | 0.0 | 0.0 | 0.00 | 0.08 | 0.08 | 78 | 1010.8 |
| 20260510015618 | 25 | 254 | 0.0 | 0.0 | 0.00 | 0.08 | 0.08 | 75 | 1010.8 |
| 20260510015114 | 25 | 254 | 0.0 | 1.6 | 0.00 | 0.08 | 0.08 | 74 | 1010.6 |
| 20260510014610 | 25 | 175 | 0.0 | 3.2 | 0.00 | 0.08 | 0.08 | 73 | 1010.7 |
| 20260510014108 | 25 | 169 | 0.0 | 3.2 | 0.00 | 0.08 | 0.08 | 72 | 1010.6 |
| 20260510013607 | 25 | 195 | 0.0 | 0.0 | 0.00 | 0.08 | 0.08 | 70 | 1010.5 |
| 20260510013103 | 26 | 172 | 0.0 | 0.0 | 0.00 | 0.08 | 0.08 | 69 | 1010.7 |
| 20260510012557 | 26 | 131 | 0.0 | 3.2 | 0.00 | 0.08 | 0.08 | 67 | 1010.6 |
| 20260510012054 | 26 | 180 | 1.6 | 3.2 | 0.00 | 0.08 | 0.08 | 66 | 1010.3 |
| 20260510011553 | 26 | 261 | 0.0 | 3.2 | 0.00 | 0.08 | 0.08 | 65 | 1010.3 |
| 20260510011050 | 26 | 120 | 0.0 | 0.0 | 0.00 | 0.08 | 0.08 | 64 | 1010.5 |
| 20260510010547 | 27 | 83 | 0.0 | 3.2 | 0.00 | 0.08 | 0.08 | 63 | 1010.3 |
| 20260510010044 | 27 | 270 | 0.0 | 0.0 | 0.00 | 0.08 | 0.08 | 62 | 1010.3 |
| 20260510005539 | 27 | 101 | 0.0 | 4.8 | 0.00 | 0.08 | 0.08 | 62 | 1010.3 |
| 20260510005037 | 27 | 257 | 0.0 | 4.8 | 0.00 | 0.08 | 0.08 | 62 | 1010.3 |
| 20260510004534 | 27 | 270 | 0.0 | 4.8 | 0.00 | 0.08 | 0.08 | 61 | 1010.3 |
| 20260510004032 | 27 | 194 | 4.8 | 6.4 | 0.00 | 0.08 | 0.08 | 59 | 1010.2 |
| 20260510003529 | 28 | 209 | 4.8 | 4.8 | 0.00 | 0.08 | 0.08 | 59 | 1009.9 |
| 20260510003024 | 28 | 213 | 6.4 | 8.0 | 0.00 | 0.08 | 0.08 | 57 | 1010.2 |
| 20260510002520 | 28 | 93 | 6.4 | 9.7 | 0.00 | 0.08 | 0.08 | 56 | 1010.2 |
| 20260510002017 | 28 | 154 | 0.0 | 6.4 | 0.00 | 0.08 | 0.08 | 56 | 1010.0 |
| 20260510001514 | 28 | 180 | 1.6 | 8.0 | 0.00 | 0.08 | 0.08 | 55 | 1009.8 |
| 20260510001012 | 28 | 123 | 3.2 | 6.4 | 0.00 | 0.08 | 0.08 | 52 | 1009.8 |
| 20260510000507 | 28 | 206 | 3.2 | 6.4 | 0.00 | 0.08 | 0.08 | 54 | 1009.8 |
| 20260510000004 | 29 | 105 | 0.0 | 8.0 | 0.00 | 0.08 | 0.08 | 53 | 1009.9 |
| 20260509235501 | 29 | 163 | 0.0 | 8.0 | 0.00 | 0.08 | 0.08 | 49 | 1009.9 |
| 20260509234957 | 29 | 132 | 3.2 | 8.0 | 0.00 | 0.08 | 0.08 | 47 | 1009.8 |
| 20260509234454 | 30 | 180 | 3.2 | 6.4 | 0.00 | 0.08 | 0.08 | 50 | 1009.7 |
| 20260509233952 | 30 | 237 | 4.8 | 8.0 | 0.00 | 0.08 | 0.08 | 49 | 1009.7 |
| 20260509233449 | 30 | 325 | 1.6 | 9.7 | 0.00 | 0.08 | 0.08 | 49 | 1009.6 |
| 20260509232945 | 30 | 64 | 4.8 | 8.0 | 0.00 | 0.08 | 0.08 | 52 | 1009.4 |
| 20260509232443 | 30 | 83 | 6.4 | 11.3 | 0.00 | 0.08 | 0.08 | 53 | 1009.6 |
| 20260509231938 | 30 | 331 | 0.0 | 11.3 | 0.00 | 0.08 | 0.08 | 53 | 1009.5 |
| 20260509231435 | 31 | 82 | 4.8 | 11.3 | 0.00 | 0.08 | 0.08 | 55 | 1009.6 |
| 20260509230934 | 31 | 109 | 6.4 | 8.0 | 0.00 | 0.08 | 0.08 | 52 | 1009.5 |
| 20260509230430 | 32 | 279 | 0.0 | 4.8 | 0.00 | 0.08 | 0.08 | 54 | 1009.5 |
| 20260509225926 | 31 | 180 | 1.6 | 9.7 | 0.00 | 0.08 | 0.08 | 57 | 1009.3 |
| 20260509225422 | 32 | 158 | 4.8 | 6.4 | 0.00 | 0.08 | 0.08 | 54 | 1009.5 |
| 20260509224919 | 32 | 60 | 1.6 | 6.4 | 0.00 | 0.08 | 0.08 | 56 | 1009.3 |
| 20260509224414 | 31 | 140 | 3.2 | 8.0 | 0.00 | 0.08 | 0.08 | 55 | 1009.5 |
| 20260509223912 | 32 | 231 | 4.8 | 8.0 | 0.00 | 0.08 | 0.08 | 55 | 1009.4 |
| 20260509223408 | 31 | 90 | 1.6 | 6.4 | 0.00 | 0.08 | 0.08 | 56 | 1009.5 |
| 20260509222905 | 32 | 353 | 0.0 | 6.4 | 0.00 | 0.08 | 0.08 | 55 | 1009.3 |
| 20260509222401 | 31 | 117 | 0.0 | 4.8 | 0.00 | 0.08 | 0.08 | 56 | 1009.4 |
| 20260509221856 | 32 | 90 | 0.0 | 4.8 | 0.00 | 0.08 | 0.08 | 55 | 1009.4 |
| 20260509221354 | 32 | 180 | 0.0 | 4.8 | 0.00 | 0.08 | 0.08 | 57 | 1009.1 |
| 20260509220849 | 31 | 225 | 8.0 | 8.0 | 0.00 | 0.08 | 0.08 | 56 | 1009.4 |
| 20260509220345 | 32 | 78 | 3.2 | 4.8 | 0.00 | 0.08 | 0.08 | 54 | 1009.4 |
| 20260509215841 | 31 | 90 | 1.6 | 6.4 | 0.00 | 0.08 | 0.08 | 58 | 1009.4 |
| 20260509215337 | 31 | 117 | 3.2 | 9.7 | 0.00 | 0.08 | 0.08 | 57 | 1009.4 |
| 20260509214835 | 31 | 0 | 0.0 | 8.0 | 0.00 | 0.08 | 0.08 | 56 | 1009.3 |
| 20260509214332 | 30 | 111 | 4.8 | 6.4 | 0.00 | 0.08 | 0.08 | 58 | 1009.6 |
| 20260509213829 | 29 | 157 | 6.4 | 6.4 | 0.00 | 0.08 | 0.08 | 58 | 1009.5 |
| 20260509213324 | 29 | 283 | 3.2 | 8.0 | 0.00 | 0.08 | 0.08 | 61 | 1009.7 |
| 20260509212822 | 28 | 175 | 8.0 | 11.3 | 0.00 | 0.08 | 0.08 | 60 | 1010.1 |
| 20260509212320 | 28 | 198 | 11.3 | 14.5 | 0.00 | 0.08 | 0.08 | 60 | 1009.8 |
| 20260509211815 | 27 | 204 | 3.2 | 9.7 | 0.00 | 0.08 | 0.08 | 60 | 1010.0 |
| 20260509211311 | 27 | 126 | 6.4 | 11.3 | 0.00 | 0.08 | 0.08 | 59 | 1010.3 |
| 20260509210808 | 27 | 50 | 6.4 | 12.9 | 0.00 | 0.08 | 0.08 | 59 | 1010.4 |
| 20260509210306 | 26 | 134 | 11.3 | 22.5 | 0.00 | 0.08 | 0.08 | 61 | 1010.4 |
| 20260509205805 | 27 | 106 | 11.3 | 22.5 | 0.00 | 0.08 | 0.08 | 56 | 1010.3 |
| 20260509205300 | 28 | 92 | 8.0 | 20.9 | 0.00 | 0.08 | 0.08 | 59 | 1010.3 |
| 20260509204756 | 30 | 2 | 6.4 | 12.9 | 0.00 | 0.08 | 0.08 | 56 | 1010.4 |
| 20260509204252 | 32 | 334 | 0.0 | 6.4 | 0.00 | 0.08 | 0.08 | 51 | 1010.4 |
| 20260509203749 | 33 | 0 | 6.4 | 6.4 | 0.00 | 0.08 | 0.08 | 50 | 1010.1 |
| 20260509203247 | 32 | 270 | 1.6 | 4.8 | 0.00 | 0.08 | 0.08 | 49 | 1010.1 |
| 20260509202742 | 33 | 270 | 3.2 | 8.0 | 0.00 | 0.08 | 0.08 | 49 | 1010.2 |
| 20260509202238 | 33 | 255 | 0.0 | 12.9 | 0.00 | 0.08 | 0.08 | 51 | 1010.2 |
| 20260509201733 | 33 | 64 | 4.8 | 9.7 | 0.00 | 0.08 | 0.08 | 50 | 1010.3 |
| 20260509201230 | 33 | 54 | 1.6 | 4.8 | 0.00 | 0.08 | 0.08 | 53 | 1010.3 |
| 20260509200726 | 32 | 346 | 1.6 | 4.8 | 0.00 | 0.08 | 0.08 | 52 | 1010.4 |
| 20260509200221 | 33 | 225 | 6.4 | 6.4 | 0.00 | 0.08 | 0.08 | 52 | 1010.4 |
| 20260509195717 | 32 | 285 | 0.0 | 4.8 | 0.00 | 0.08 | 0.08 | 55 | 1010.5 |
| 20260509195213 | 31 | 210 | 3.2 | 11.3 | 0.00 | 0.08 | 0.08 | 57 | 1010.4 |
| 20260509194707 | 32 | 206 | 4.8 | 14.5 | 0.00 | 0.08 | 0.08 | 56 | 1010.8 |
| 20260509194204 | 32 | 328 | 0.0 | 4.8 | 0.00 | 0.08 | 0.08 | 56 | 1010.4 |
| 20260509193700 | 32 | 172 | 1.6 | 14.5 | 0.00 | 0.08 | 0.08 | 56 | 1010.6 |
| 20260509193155 | 32 | 243 | 0.0 | 6.4 | 0.00 | 0.08 | 0.08 | 55 | 1010.7 |
| 20260509192652 | 32 | 270 | 1.6 | 11.3 | 0.00 | 0.08 | 0.08 | 58 | 1010.7 |
| 20260509192147 | 31 | 5 | 3.2 | 4.8 | 0.00 | 0.08 | 0.08 | 55 | 1011.0 |
| 20260509191647 | 32 | 204 | 3.2 | 11.3 | 0.00 | 0.08 | 0.08 | 58 | 1011.0 |
| 20260509191144 | 31 | 5 | 0.0 | 6.4 | 0.00 | 0.08 | 0.08 | 61 | 1011.0 |
| 20260509190641 | 30 | 232 | 4.8 | 6.4 | 0.00 | 0.08 | 0.08 | 62 | 1011.0 |
| 20260509190138 | 31 | 200 | 0.0 | 4.8 | 0.00 | 0.08 | 0.08 | 59 | 1011.2 |
| 20260509185636 | 31 | 251 | 6.4 | 9.7 | 0.00 | 0.08 | 0.08 | 58 | 1011.3 |
| 20260509185131 | 31 | 219 | 6.4 | 6.4 | 0.00 | 0.08 | 0.08 | 59 | 1011.2 |
| 20260509184624 | 31 | 267 | 11.3 | 11.3 | 0.00 | 0.08 | 0.08 | 61 | 1011.6 |
| 20260509184120 | 31 | 261 | 0.0 | 11.3 | 0.00 | 0.08 | 0.08 | 62 | 1011.5 |
| 20260509183616 | 31 | 243 | 0.0 | 4.8 | 0.00 | 0.08 | 0.08 | 60 | 1011.5 |
| 20260509183112 | 30 | 292 | 3.2 | 6.4 | 0.00 | 0.08 | 0.08 | 63 | 1011.7 |
| 20260509182608 | 30 | 255 | 1.6 | 9.7 | 0.00 | 0.08 | 0.08 | 65 | 1011.9 |
| 20260509182105 | 31 | 280 | 4.8 | 4.8 | 0.00 | 0.08 | 0.08 | 63 | 1011.9 |
| 20260509181604 | 30 | 220 | 0.0 | 4.8 | 0.00 | 0.08 | 0.08 | 66 | 1012.0 |
| 20260509181101 | 30 | 7 | 3.2 | 8.0 | 0.00 | 0.08 | 0.08 | 64 | 1011.9 |
| 20260509180556 | 30 | 262 | 1.6 | 4.8 | 0.00 | 0.08 | 0.08 | 64 | 1011.8 |
| 20260509180054 | 30 | 188 | 0.0 | 9.7 | 0.00 | 0.08 | 0.08 | 69 | 1011.8 |
| 20260509175549 | 30 | 41 | 3.2 | 4.8 | 0.00 | 0.08 | 0.08 | 65 | 1012.2 |
| 20260509175046 | 30 | 212 | 0.0 | 8.0 | 0.00 | 0.08 | 0.08 | 66 | 1012.1 |
| 20260509174542 | 30 | 320 | 3.2 | 8.0 | 0.00 | 0.08 | 0.08 | 72 | 1012.2 |
| 20260509174038 | 30 | 98 | 0.0 | 3.2 | 0.00 | 0.08 | 0.08 | 68 | 1012.4 |
| 20260509173532 | 29 | 264 | 0.0 | 8.0 | 0.00 | 0.08 | 0.08 | 71 | 1012.5 |
| 20260509173029 | 29 | 235 | 9.7 | 12.9 | 0.00 | 0.08 | 0.08 | 69 | 1012.5 |
| 20260509172526 | 30 | 165 | 1.6 | 8.0 | 0.00 | 0.08 | 0.08 | 72 | 1012.5 |
| 20260509172021 | 28 | 173 | 3.2 | 9.7 | 0.00 | 0.08 | 0.08 | 74 | 1012.5 |
| 20260509171517 | 29 | 270 | 4.8 | 12.9 | 0.00 | 0.08 | 0.08 | 70 | 1012.5 |
| 20260509171014 | 29 | 227 | 4.8 | 6.4 | 0.00 | 0.08 | 0.08 | 70 | 1012.5 |
| 20260509170510 | 28 | 223 | 6.4 | 12.9 | 0.00 | 0.08 | 0.08 | 72 | 1012.3 |
| 20260509170006 | 29 | 219 | 0.0 | 8.0 | 0.00 | 0.08 | 0.08 | 72 | 1012.7 |
| 20260509165504 | 29 | 233 | 4.8 | 8.0 | 0.00 | 0.08 | 0.08 | 74 | 1012.5 |
| 20260509165000 | 28 | 280 | 4.8 | 8.0 | 0.00 | 0.08 | 0.08 | 77 | 1012.6 |
| 20260509164457 | 28 | 191 | 4.8 | 6.4 | 0.00 | 0.08 | 0.08 | 77 | 1012.7 |
| 20260509163952 | 27 | 228 | 6.4 | 12.9 | 0.00 | 0.08 | 0.08 | 76 | 1012.6 |
| 20260509163451 | 28 | 0 | 3.2 | 4.8 | 0.00 | 0.08 | 0.08 | 78 | 1012.5 |
| 20260509162949 | 27 | 259 | 4.8 | 6.4 | 0.00 | 0.08 | 0.08 | 78 | 1012.7 |
| 20260509162448 | 27 | 212 | 4.8 | 9.7 | 0.00 | 0.08 | 0.08 | 80 | 1012.4 |
| 20260509161944 | 27 | 209 | 11.3 | 16.1 | 0.00 | 0.08 | 0.08 | 80 | 1012.5 |
| 20260509161440 | 27 | 168 | 9.7 | 9.7 | 0.00 | 0.08 | 0.08 | 81 | 1012.7 |
| 20260509160935 | 26 | 189 | 8.0 | 11.3 | 0.00 | 0.08 | 0.08 | 81 | 1012.3 |
| 20260509160432 | 26 | 239 | 3.2 | 14.5 | 0.00 | 0.08 | 0.08 | 81 | 1012.7 |
| 20260509155927 | 26 | 263 | 4.8 | 9.7 | 0.00 | 0.08 | 0.08 | 87 | 1012.5 |
| 20260509155424 | 25 | 12 | 1.6 | 12.9 | 0.00 | 0.08 | 0.08 | 85 | 1012.4 |
| 20260509154920 | 25 | 180 | 6.4 | 8.0 | 0.00 | 0.08 | 0.08 | 87 | 1012.5 |
| 20260509154417 | 25 | 255 | 8.0 | 11.3 | 0.00 | 0.08 | 0.08 | 89 | 1012.9 |
| 20260509153914 | 25 | 216 | 4.8 | 11.3 | 0.00 | 0.08 | 0.08 | 90 | 1012.7 |
| 20260509153411 | 25 | 201 | 11.3 | 11.3 | 0.05 | 0.08 | 0.08 | 91 | 1012.8 |
| 20260509152908 | 24 | 223 | 12.9 | 14.5 | 0.05 | 0.08 | 0.08 | 93 | 1012.7 |
| 20260509152404 | 23 | 185 | 8.0 | 8.0 | 0.00 | 0.05 | 0.05 | 94 | 1013.2 |
| 20260509151901 | 23 | 163 | 4.8 | 9.7 | 0.00 | 0.05 | 0.05 | 94 | 1012.9 |
| 20260509151356 | 23 | 195 | 4.8 | 9.7 | 0.00 | 0.05 | 0.05 | 94 | 1012.7 |
| 20260509150855 | 23 | 227 | 4.8 | 4.8 | 0.00 | 0.05 | 0.05 | 95 | 1012.9 |
| 20260509150353 | 23 | 105 | 3.2 | 6.4 | 0.00 | 0.05 | 0.05 | 94 | 1012.9 |
| 20260509145850 | 22 | 98 | 0.0 | 8.0 | 0.00 | 0.05 | 0.05 | 94 | 1012.8 |
| 20260509145344 | 22 | 183 | 4.8 | 4.8 | 0.00 | 0.05 | 0.05 | 95 | 1012.7 |
| 20260509144841 | 22 | 180 | 3.2 | 4.8 | 0.00 | 0.05 | 0.05 | 94 | 1012.3 |
| 20260509144338 | 22 | 158 | 4.8 | 6.4 | 0.00 | 0.05 | 0.05 | 95 | 1012.5 |
| 20260509143835 | 22 | 123 | 3.2 | 4.8 | 0.00 | 0.05 | 0.05 | 94 | 1012.4 |
| 20260509143332 | 22 | 125 | 4.8 | 6.4 | 0.00 | 0.05 | 0.05 | 95 | 1012.5 |
| 20260509142828 | 22 | 215 | 0.0 | 3.2 | 0.00 | 0.05 | 0.05 | 95 | 1012.3 |
| 20260509142324 | 22 | 186 | 1.6 | 4.8 | 0.00 | 0.05 | 0.05 | 94 | 1012.0 |
| 20260509141820 | 22 | 111 | 0.0 | 4.8 | 0.00 | 0.05 | 0.05 | 94 | 1012.0 |
| 20260509141317 | 22 | 203 | 0.0 | 8.0 | 0.00 | 0.05 | 0.05 | 94 | 1011.8 |
| 20260509140814 | 22 | 172 | 0.0 | 6.4 | 0.00 | 0.05 | 0.05 | 94 | 1011.8 |
| 20260509140311 | 22 | 110 | 0.0 | 3.2 | 0.00 | 0.05 | 0.05 | 94 | 1011.8 |
| 20260509135809 | 22 | 177 | 0.0 | 4.8 | 0.00 | 0.05 | 0.05 | 94 | 1012.0 |
| 20260509135306 | 22 | 106 | 1.6 | 3.2 | 0.00 | 0.05 | 0.05 | 94 | 1012.0 |
| 20260509134803 | 22 | 81 | 0.0 | 3.2 | 0.00 | 0.05 | 0.05 | 94 | 1012.1 |
| 20260509134301 | 22 | 83 | 1.6 | 1.6 | 0.00 | 0.05 | 0.05 | 94 | 1012.1 |
| 20260509133757 | 22 | 65 | 3.2 | 3.2 | 0.00 | 0.05 | 0.05 | 94 | 1012.6 |
| 20260509133254 | 22 | 14 | 1.6 | 4.8 | 0.00 | 0.05 | 0.05 | 94 | 1012.6 |
| 20260509132753 | 22 | 57 | 3.2 | 3.2 | 0.00 | 0.05 | 0.05 | 94 | 1012.7 |
| 20260509132251 | 22 | 12 | 1.6 | 4.8 | 0.00 | 0.05 | 0.05 | 94 | 1012.7 |
| 20260509131747 | 21 | 23 | 3.2 | 4.8 | 0.00 | 0.05 | 0.05 | 94 | 1012.5 |
| 20260509131244 | 22 | 55 | 4.8 | 6.4 | 0.00 | 0.05 | 0.05 | 94 | 1012.4 |
| 20260509130740 | 22 | 0 | 1.6 | 6.4 | 0.00 | 0.05 | 0.05 | 94 | 1012.2 |
| 20260509130236 | 22 | 69 | 4.8 | 4.8 | 0.00 | 0.05 | 0.05 | 94 | 1012.2 |
| 20260509125733 | 22 | 29 | 0.0 | 3.2 | 0.00 | 0.05 | 0.05 | 94 | 1011.9 |
| 20260509125230 | 21 | 29 | 1.6 | 4.8 | 0.00 | 0.05 | 0.05 | 94 | 1012.0 |
| 20260509124726 | 21 | 58 | 4.8 | 4.8 | 0.00 | 0.05 | 0.05 | 94 | 1012.1 |
| 20260509124223 | 21 | 15 | 3.2 | 4.8 | 0.00 | 0.05 | 0.05 | 94 | 1012.0 |
| 20260509123721 | 22 | 15 | 3.2 | 3.2 | 0.00 | 0.05 | 0.05 | 94 | 1011.9 |
| 20260509123218 | 21 | 40 | 3.2 | 3.2 | 0.00 | 0.05 | 0.05 | 94 | 1012.0 |
| 20260509122713 | 21 | 29 | 0.0 | 1.6 | 0.00 | 0.05 | 0.05 | 94 | 1012.0 |
| 20260509122210 | 21 | 40 | 0.0 | 3.2 | 0.00 | 0.05 | 0.05 | 94 | 1012.2 |
| 20260509121707 | 21 | 66 | 0.0 | 0.0 | 0.00 | 0.05 | 0.05 | 94 | 1012.2 |
| 20260509121205 | 21 | 69 | 1.6 | 1.6 | 0.00 | 0.05 | 0.05 | 94 | 1012.2 |
| 20260509120703 | 21 | 69 | 0.0 | 1.6 | 0.00 | 0.05 | 0.05 | 94 | 1012.1 |
| 20260509120201 | 21 | 35 | 0.0 | 3.2 | 0.00 | 0.05 | 0.05 | 94 | 1012.2 |
| 20260509115658 | 21 | 20 | 1.6 | 3.2 | 0.00 | 0.05 | 0.05 | 94 | 1011.9 |
| 20260509115155 | 21 | 68 | 0.0 | 3.2 | 0.00 | 0.05 | 0.05 | 94 | 1012.5 |
| 20260509114653 | 21 | 0 | 0.0 | 1.6 | 0.00 | 0.05 | 0.05 | 94 | 1012.0 |
| 20260509114152 | 21 | 23 | 0.0 | 4.8 | 0.00 | 0.05 | 0.05 | 94 | 1012.5 |
| 20260509113650 | 21 | 66 | 0.0 | 3.2 | 0.00 | 0.05 | 0.05 | 94 | 1012.4 |
| 20260509113147 | 21 | 75 | 1.6 | 4.8 | 0.00 | 0.05 | 0.05 | 94 | 1012.6 |
| 20260509112643 | 21 | 23 | 3.2 | 3.2 | 0.00 | 0.05 | 0.05 | 94 | 1012.6 |
| 20260509112141 | 21 | 60 | 1.6 | 3.2 | 0.00 | 0.05 | 0.05 | 94 | 1012.8 |
| 20260509111638 | 21 | 38 | 0.0 | 4.8 | 0.00 | 0.05 | 0.05 | 94 | 1012.8 |
| 20260509111134 | 21 | 30 | 0.0 | 3.2 | 0.05 | 0.05 | 0.05 | 94 | 1012.9 |
| 20260509110632 | 21 | 0 | 3.2 | 6.4 | 0.05 | 0.05 | 0.05 | 94 | 1013.1 |
| 20260509110129 | 21 | 25 | 4.8 | 6.4 | 0.00 | 0.05 | 0.05 | 94 | 1013.0 |
| 20260509105627 | 21 | 21 | 4.8 | 4.8 | 0.00 | 0.05 | 0.05 | 94 | 1012.8 |
| 20260509105124 | 21 | 29 | 0.0 | 3.2 | 0.00 | 0.05 | 0.05 | 94 | 1013.0 |
| 20260509104621 | 21 | 32 | 3.2 | 6.4 | 0.00 | 0.05 | 0.05 | 95 | 1012.9 |
| 20260509104117 | 22 | 26 | 0.0 | 4.8 | 0.00 | 0.05 | 0.05 | 94 | 1013.2 |
| 20260509103615 | 21 | 15 | 0.0 | 3.2 | 0.00 | 0.05 | 0.05 | 94 | 1012.9 |
| 20260509103113 | 21 | 69 | 0.0 | 3.2 | 0.00 | 0.05 | 0.05 | 94 | 1012.8 |
| 20260509102610 | 21 | 31 | 0.0 | 4.8 | 0.00 | 0.05 | 0.05 | 94 | 1012.8 |
| 20260509102107 | 22 | 60 | 0.0 | 3.2 | 0.00 | 0.05 | 0.05 | 94 | 1012.6 |
| 20260509101603 | 22 | 29 | 0.0 | 1.6 | 0.00 | 0.05 | 0.05 | 94 | 1012.4 |
| 20260509101100 | 21 | 90 | 0.0 | 0.0 | 0.00 | 0.05 | 0.05 | 95 | 1012.4 |
| 20260509100557 | 22 | 90 | 0.0 | 1.6 | 0.00 | 0.05 | 0.05 | 94 | 1012.2 |
| 20260509100055 | 21 | 90 | 1.6 | 1.6 | 0.00 | 0.05 | 0.05 | 94 | 1012.0 |
| 20260509095551 | 21 | 81 | 0.0 | 3.2 | 0.00 | 0.05 | 0.05 | 94 | 1011.9 |